Total_Precipitation_Accumulation
0.57 0.58 0.64 0.66 0.69 0.78 0.91 0.99 1.00 0.99 0.97 1.04 1.15 1.21 1.19 1.18 1.17 1.13 1.07 1.02 0.98 0.93 0.90 0.93 0.94 0.94 1.01 1.03 1.07 1.15 1.26 1.39 1.44 1.18 0.99 0.98 1.04 1.04 1.03 0.94 0.89 0.91 0.90
0.44 0.45 0.47 0.50 0.52 0.57 0.67 0.76 0.80 0.84 0.88 0.90 0.89 0.91 0.97 1.00 1.03 1.05 1.01 0.96 0.92 0.88 0.85 0.86 0.87 0.89 0.96 1.01 1.07 1.14 1.20 1.27 1.32 1.21 1.02 0.93 0.88 0.82 0.78 0.73 0.68 0.66 0.66
0.35 0.35 0.38 0.38 0.39 0.41 0.46 0.52 0.55 0.62 0.71 0.77 0.76 0.75 0.74 0.74 0.77 0.83 0.88 0.91 0.89 0.86 0.86 0.88 0.89 0.92 0.96 1.00 1.07 1.12 1.13 1.11 1.09 1.03 0.88 0.76 0.69 0.65 0.65 0.62 0.56 0.54 0.53
0.29 0.29 0.30 0.30 0.31 0.33 0.34 0.37 0.40 0.42 0.46 0.50 0.54 0.57 0.61 0.62 0.60 0.63 0.68 0.76 0.83 0.87 0.88 0.90 0.93 1.00 1.07 1.11 1.11 1.10 1.07 1.02 0.96 0.91 0.83 0.73 0.64 0.57 0.57 0.58 0.55 0.49 0.46
0.27 0.24 0.23 0.25 0.25 0.26 0.25 0.25 0.25 0.25 0.26 0.30 0.35 0.40 0.44 0.48 0.52 0.55 0.57 0.62 0.67 0.75 0.84 0.91 0.96 1.05 1.08 1.02 0.93 0.87 0.82 0.80 0.80 0.79 0.74 0.65 0.56 0.51 0.50 0.46 0.46 0.45 0.43
0.25 0.22 0.22 0.22 0.23 0.23 0.21 0.18 0.17 0.18 0.19 0.22 0.26 0.31 0.36 0.40 0.53 0.53 0.49 0.52 0.62 0.67 0.72 0.77 0.83 0.88 0.82 0.78 0.73 0.68 0.68 0.72 0.72 0.65 0.58 0.49 0.41 0.36 0.36 0.41 0.46 0.53 0.52
0.31 0.27 0.25 0.25 0.24 0.24 0.24 0.24 0.23 0.23 0.24 0.26 0.28 0.31 0.35 0.43 0.55 0.55 0.59 0.56 0.61 0.65 0.64 0.62 0.59 0.58 0.58 0.50 0.51 0.52 0.53 0.54 0.51 0.47 0.45 0.38 0.34 0.31 0.38 0.46 0.48 0.48 0.40
0.42 0.40 0.37 0.38 0.41 0.42 0.44 0.44 0.42 0.42 0.42 0.43 0.43 0.44 0.48 0.56 0.64 0.60 0.58 0.53 0.53 0.53 0.49 0.44 0.41 0.40 0.40 0.41 0.42 0.44 0.38 0.34 0.32 0.29 0.27 0.26 0.28 0.33 0.42 0.50 0.50 0.50 0.43
0.59 0.64 0.63 0.63 0.66 0.70 0.74 0.76 0.73 0.70 0.69 0.69 0.69 0.67 0.65 0.63 0.60 0.50 0.44 0.39 0.37 0.35 0.32 0.30 0.29 0.29 0.33 0.38 0.37 0.37 0.35 0.32 0.32 0.32 0.32 0.31 0.34 0.38 0.42 0.48 0.56 0.66 0.60
0.73 0.78 0.76 0.75 0.76 0.77 0.78 0.77 0.74 0.68 0.66 0.64 0.63 0.59 0.54 0.47 0.41 0.33 0.28 0.25 0.23 0.22 0.22 0.23 0.26 0.27 0.35 0.42 0.38 0.36 0.35 0.32 0.33 0.35 0.34 0.32 0.31 0.32 0.38 0.37 0.42 0.65 0.66
0.73 0.69 0.63 0.60 0.55 0.52 0.49 0.47 0.44 0.41 0.38 0.35 0.33 0.29 0.25 0.22 0.21 0.20 0.19 0.17 0.17 0.19 0.21 0.22 0.24 0.31 0.37 0.43 0.45 0.39 0.38 0.39 0.38 0.37 0.37 0.36 0.35 0.35 0.35 0.32 0.33 0.51 0.70
0.46 0.38 0.32 0.30 0.28 0.26 0.26 0.24 0.21 0.19 0.17 0.15 0.13 0.11 0.10 0.11 0.13 0.16 0.18 0.19 0.20 0.19 0.19 0.19 0.22 0.32 0.38 0.41 0.41 0.42 0.46 0.47 0.41 0.40 0.40 0.39 0.36 0.35 0.34 0.32 0.32 0.35 0.42
0.15 0.12 0.10 0.10 0.10 0.10 0.10 0.11 0.09 0.08 0.07 0.07 0.06 0.06 0.07 0.08 0.11 0.15 0.18 0.20 0.23 0.22 0.19 0.23 0.29 0.34 0.35 0.34 0.35 0.39 0.43 0.41 0.39 0.41 0.38 0.33 0.30 0.31 0.34 0.38 0.40 0.40 0.40
0.06 0.06 0.05 0.05 0.05 0.06 0.07 0.08 0.08 0.08 0.08 0.08 0.09 0.09 0.09 0.09 0.10 0.14 0.17 0.20 0.24 0.24 0.23 0.24 0.28 0.31 0.33 0.33 0.34 0.35 0.35 0.36 0.39 0.40 0.36 0.34 0.34 0.37 0.39 0.40 0.45 0.48 0.52
0.06 0.07 0.07 0.08 0.08 0.08 0.09 0.11 0.12 0.12 0.13 0.15 0.14 0.14 0.16 0.15 0.14 0.21 0.27 0.26 0.28 0.30 0.33 0.34 0.32 0.31 0.31 0.31 0.31 0.30 0.32 0.35 0.38 0.39 0.41 0.42 0.42 0.42 0.41 0.40 0.47 0.55 0.59
0.10 0.10 0.11 0.13 0.14 0.14 0.14 0.15 0.17 0.18 0.20 0.20 0.20 0.20 0.19 0.20 0.23 0.29 0.31 0.33 0.36 0.42 0.47 0.39 0.32 0.29 0.28 0.28 0.29 0.31 0.31 0.33 0.35 0.41 0.47 0.50 0.51 0.51 0.50 0.47 0.50 0.58 0.57
0.16 0.17 0.18 0.19 0.20 0.21 0.22 0.22 0.21 0.22 0.26 0.26 0.23 0.23 0.23 0.25 0.28 0.31 0.33 0.36 0.40 0.46 0.44 0.32 0.25 0.25 0.27 0.29 0.31 0.34 0.35 0.33 0.39 0.48 0.53 0.54 0.59 0.60 0.60 0.58 0.57 0.60 0.59
0.14 0.17 0.19 0.18 0.20 0.22 0.23 0.24 0.25 0.25 0.24 0.22 0.23 0.26 0.27 0.30 0.32 0.34 0.39 0.45 0.43 0.39 0.32 0.26 0.24 0.25 0.29 0.33 0.36 0.39 0.40 0.42 0.47 0.51 0.53 0.56 0.63 0.70 0.69 0.63 0.61 0.64 0.67
0.14 0.16 0.19 0.21 0.22 0.23 0.25 0.26 0.26 0.26 0.24 0.22 0.22 0.25 0.32 0.37 0.40 0.40 0.43 0.43 0.36 0.28 0.23 0.23 0.25 0.29 0.33 0.38 0.41 0.44 0.48 0.50 0.50 0.53 0.54 0.55 0.62 0.76 0.73 0.60 0.62 0.64 0.73
0.17 0.22 0.26 0.26 0.26 0.26 0.28 0.29 0.29 0.28 0.28 0.26 0.25 0.26 0.37 0.48 0.44 0.37 0.35 0.32 0.29 0.26 0.25 0.28 0.30 0.34 0.40 0.44 0.48 0.51 0.53 0.51 0.52 0.55 0.55 0.57 0.63 0.75 0.75 0.67 0.67 0.73 0.69
0.19 0.23 0.31 0.30 0.26 0.27 0.30 0.32 0.33 0.34 0.33 0.30 0.27 0.31 0.51 0.57 0.46 0.35 0.33 0.32 0.32 0.33 0.35 0.38 0.39 0.41 0.45 0.48 0.51 0.52 0.53 0.50 0.49 0.55 0.58 0.60 0.67 0.74 0.69 0.71 0.71 0.73 0.79
0.21 0.22 0.25 0.27 0.28 0.30 0.35 0.37 0.39 0.38 0.34 0.32 0.30 0.34 0.50 0.49 0.41 0.37 0.35 0.34 0.34 0.37 0.42 0.49 0.48 0.44 0.48 0.56 0.62 0.64 0.58 0.50 0.48 0.57 0.63 0.63 0.68 0.71 0.72 0.78 0.79 0.85 0.88
0.24 0.25 0.26 0.26 0.28 0.33 0.36 0.33 0.34 0.35 0.34 0.33 0.33 0.35 0.39 0.40 0.36 0.36 0.36 0.37 0.39 0.42 0.45 0.50 0.51 0.45 0.44 0.53 0.62 0.75 0.76 0.61 0.56 0.68 0.83 0.84 0.82 0.85 0.91 0.94 0.88 0.86 0.76
0.24 0.26 0.27 0.27 0.28 0.30 0.31 0.30 0.30 0.32 0.35 0.36 0.35 0.34 0.34 0.35 0.35 0.35 0.38 0.40 0.43 0.44 0.46 0.49 0.48 0.46 0.46 0.53 0.57 0.61 0.66 0.75 0.93 1.05 1.19 1.38 1.27 1.10 1.04 0.97 0.84 0.77 0.76
0.25 0.28 0.30 0.31 0.33 0.33 0.33 0.33 0.32 0.33 0.35 0.36 0.36 0.35 0.34 0.35 0.36 0.35 0.37 0.40 0.43 0.44 0.43 0.45 0.47 0.49 0.50 0.52 0.54 0.55 0.61 0.76 1.03 1.37 1.52 1.46 1.23 1.04 1.02 0.96 0.83 0.79 0.78
0.27 0.30 0.33 0.34 0.35 0.35 0.36 0.36 0.34 0.35 0.36 0.36 0.37 0.38 0.38 0.38 0.37 0.37 0.39 0.41 0.43 0.42 0.41 0.42 0.43 0.47 0.51 0.53 0.50 0.53 0.63 0.71 0.80 0.96 1.26 1.35 1.19 1.01 1.01 1.06 0.93 0.88 0.86